sat.trackr.live / text

‹ back to catalog

YAHSAT 1A

NORAD 37393 · 2011-016B

PAYLOAD ACTIVE UNKNOWN

§ Identity

Operator
Country
UAE
Launch date
2011-04-22
Launch site
FRGUI
Launch vehicle
Mass (kg)
RCS (m²)
31.62

Purposes: comms

External: N2YO · Heavens-Above · Gunter

§ Orbital elements

Epoch: 2026-09-10T02:16:46.791264Z

Period
1,436.09 min
Inclination
0.0116°
Eccentricity
0.0002103
Mean motion
1.00272485 rev/d
Perigee alt
35,777.5 km
Apogee alt
35,795.3 km
Semi-major
42,164.5 km
B*
0.0000e+0
RAAN
148.8181°
Arg perigee
8.2475°
Mean anomaly
278.7779°
Rev number
4,325

§ Raw data

YAHSAT 1A1 37393U 11016B   26253.09498601  .00000080  00000+0  00000+0 0  99952 37393   0.0116 148.8181 0002103   8.2475 278.7779  1.00272485 43258

JSON: /api/v1/satellites/37393 · /tle

For live sub-satellite position, see the globe view (requires WebGL).

§ Visibility from observer

Set your observer location to see the next 7 days of passes ≥ 10°. The values pass through the URL so the page stays shareable.

No JS? Fill the form by hand. The geolocation button needs JavaScript.